Regional Weather Roundup
Issued by NWS

Home | Current Version | Previous Version | Graphics & Text | Print | Product List | Glossary On
Versions: 1 2 3 4 5 6 7 8 9 10 11 12 13 14 15 16 17 18 19 20 21 22 23 24 25 26 27 28 29 30 31 32 33 34 35 36 37 38 39 40 41 42 43 44 45 46 47 48 49 50
000
ASUS43 KLMK 211110
RWRKY
KENTUCKY REGIONAL WEATHER ROUNDUP
NATIONAL WEATHER SERVICE LOUISVILLE KY
600 AM EST SAT JAN 21 2017

NOTE "FAIR" INDICATES FEW OR NO CLOUDS BELOW 12,000 FEET
WITH NO SIGNIFICANT WEATHER AND/OR OBSTRUCTIONS TO VISIBILITY.

KYZ001>023-026-027-061>063-070>075-211200-
WESTERN AND SOUTH CENTRAL KENTUCKY

CITY           SKY/WX    TMP DP  RH WIND       PRES   REMARKS
PADUCAH        CLOUDY    58  51  78 VRB5      29.64S
HENDERSON      MOCLDY    54  48  82 S6        29.66S
OWENSBORO      CLOUDY    53  50  89 S7        29.70R
HOPKINSVILLE   CLOUDY    56  53  89 S7        29.69F
BOWLING GREEN  PTCLDY    56  52  86 CALM      29.72F
GLASGOW        CLOUDY    56  51  84 CALM      29.74F
$$

KYZ024-025-028>034-038-045-046-053-211200-
NORTH CENTRAL KENTUCKY

CITY           SKY/WX    TMP DP  RH WIND       PRES   REMARKS
LOUISVILLE/SDF PTCLDY    55  49  80 S8        29.72S
LOUISVILLE/LOU CLEAR     47  44  90 S3        29.72S
FORT KNOX      CLEAR     50  49  99 S5        29.71R
$$

KYZ035>037-039>044-047>052-055>060-089>105-211200-
NORTHEAST KENTUCKY

CITY           SKY/WX    TMP DP  RH WIND       PRES   REMARKS
LEXINGTON      CLEAR     52  47  83 S8        29.76R
COVINGTON      CLEAR     50  47  89 S8        29.71S
FRANKFORT      CLEAR     49  45  86 S6        29.73S
$$

KYZ054-064>069-076>088-106>120-211200-
SOUTHEAST KENTUCKY

CITY           SKY/WX    TMP DP  RH WIND       PRES   REMARKS
JACKSON        PTCLDY    55  48  77 S3        29.78F
LONDON         CLEAR     49  45  86 S3        29.80R
SOMERSET       CLEAR     52  48  87 S5        29.80R
MIDDLESBORO    PTCLDY    43  43 100 CALM      29.83F
MONTICELLO     MOSUNNY   46  45  96 VRB3      29.80R
$$





USA.gov is the U.S. government's official web portal to all federal, state and local government web resources and services.